Dewpoint
51 52 52 53 53 53 53 53 52 52 51 51 51 49 47 45 44 43 41 40 39 38 37 37 36 36 35 36 35 35 34 34 34 34 34 34 34 34 33 32 32 32 32 32 32 32 31 30 30 31 30 31 31 31 31 31 31 30 30 31 30 30 29 28 26 25 25 24 24 24 24 24 24 25 25 25 26 26 27 25 25 24 25 24 25
50 51 51 51 51 51 51 50 50 49 49 48 47 46 44 44 41 39 40 38 38 38 37 36 36 35 35 34 34 33 33 33 33 34 33 33 33 33 32 32 31 31 31 30 31 31 31 29 29 30 30 30 30 30 30 29 30 29 29 29 28 28 29 28 26 26 24 25 26 25 24 25 24 25 25 25 24 25 24 24 24 24 24 24 24
49 49 49 50 49 48 47 47 47 46 46 44 44 42 41 40 39 39 38 37 37 37 36 35 34 34 33 33 33 33 33 32 33 33 32 32 32 32 32 31 31 31 30 30 30 30 30 29 29 29 30 29 29 29 29 29 29 28 28 29 28 28 29 29 27 26 25 24 25 25 24 25 25 24 25 25 25 25 24 23 23 25 25 25 24
47 47 47 46 45 45 45 44 44 44 43 42 40 39 38 38 39 38 37 36 36 35 34 33 33 32 32 32 32 32 32 32 32 32 32 31 31 31 31 31 31 30 30 30 30 30 29 29 28 29 29 28 27 27 28 28 28 28 28 28 28 28 28 28 28 26 25 25 24 24 25 24 23 24 25 24 23 23 23 23 24 24 24 25 24
44 44 44 43 42 43 42 42 42 42 41 40 39 38 37 37 37 36 35 35 34 33 33 32 32 31 30 31 31 31 31 31 31 31 31 31 31 31 30 30 30 30 30 30 29 29 29 28 28 28 28 27 26 26 26 27 27 28 27 27 28 28 28 27 26 26 25 24 24 24 24 24 24 24 24 23 22 22 22 22 23 23 24 24 26
43 43 43 43 41 41 40 41 41 41 39 38 38 37 37 36 35 35 34 33 33 32 31 31 29 29 29 30 30 30 31 30 30 30 30 31 31 31 31 30 30 30 29 29 29 29 28 27 28 28 27 26 26 26 27 26 27 27 27 26 26 26 26 26 26 25 25 24 24 23 23 23 22 22 23 23 22 21 21 22 23 23 23 23 24
41 42 41 42 41 40 39 40 40 39 38 37 36 36 35 35 34 34 33 32 31 30 30 29 29 28 29 29 29 29 30 30 30 30 30 30 30 30 30 30 30 29 29 29 28 28 28 27 27 27 26 26 26 26 27 27 27 27 26 26 26 26 25 25 24 24 24 23 23 23 23 23 22 21 22 22 22 22 21 22 23 23 23 24 24
40 40 40 40 40 39 40 39 38 38 37 36 35 35 34 33 33 32 31 30 29 28 28 28 28 28 28 28 29 29 29 29 30 30 31 31 31 30 30 29 29 28 28 28 28 27 27 27 27 26 26 27 27 27 27 26 26 25 26 25 25 24 24 24 24 23 23 23 23 22 22 22 22 21 22 21 22 22 24 23 23 22 23 25 26
39 39 39 39 39 38 38 37 37 36 35 35 34 33 32 32 31 30 29 28 28 27 27 27 27 27 27 27 28 29 29 30 30 31 31 31 31 30 29 29 28 27 26 26 26 25 25 25 26 25 26 26 25 25 25 25 25 24 24 24 24 24 24 24 24 24 24 23 23 23 22 21 21 20 21 21 22 22 24 24 23 23 24 24 25
39 39 39 38 38 37 37 36 35 35 34 33 32 31 30 30 29 28 28 27 26 26 26 25 24 25 25 26 28 29 30 29 30 31 31 31 30 29 29 28 27 26 25 23 23 23 24 23 24 26 25 24 24 24 24 25 25 25 24 25 25 25 26 25 24 24 24 24 23 22 22 21 20 21 22 22 23 24 23 23 22 23 24 24 24
39 39 39 38 37 36 35 35 34 34 33 32 31 30 29 28 27 27 26 26 25 25 23 23 23 23 24 26 27 29 30 31 33 33 32 31 29 28 27 26 27 26 24 22 21 21 21 22 22 23 24 23 23 23 24 25 25 25 26 26 27 25 25 24 24 24 24 23 23 22 21 20 21 22 22 22 23 23 22 23 23 23 22 22 21
39 39 39 37 36 35 35 34 33 33 32 31 29 29 28 27 26 25 25 25 24 23 22 22 22 22 23 25 27 29 31 33 34 33 31 30 28 26 26 25 25 24 23 22 21 21 21 21 21 21 22 22 22 21 22 24 25 26 26 27 26 26 26 25 24 24 24 23 22 22 21 21 21 22 23 23 22 23 24 24 24 23 22 21 20
38 38 37 36 35 35 34 33 33 32 31 30 29 28 28 27 26 26 25 24 23 22 22 22 21 21 23 25 27 29 31 34 34 32 29 29 29 26 25 25 23 23 21 21 21 21 20 20 20 20 21 23 22 21 21 22 25 26 26 26 25 25 25 26 26 24 23 23 22 22 21 22 23 23 23 22 24 23 24 22 23 23 21 19 19
38 37 35 35 35 34 33 33 32 31 30 29 28 27 27 25 25 24 25 23 22 22 22 21 21 21 22 25 27 29 31 33 33 31 29 29 28 26 24 23 22 21 21 21 20 20 20 20 20 20 20 20 20 21 23 24 25 25 24 24 23 23 24 25 25 24 23 23 22 23 24 24 22 22 23 25 24 23 23 23 22 20 19 19 21
36 35 35 34 33 33 32 32 31 30 29 28 28 27 26 25 25 24 24 23 22 22 21 21 20 22 23 26 27 28 30 33 32 30 29 29 28 25 23 22 21 21 21 21 20 20 20 20 20 20 19 19 20 23 24 24 25 25 24 23 22 22 23 21 21 21 23 24 24 23 23 22 22 22 23 24 24 24 23 22 21 20 21 22 20
35 34 34 33 32 32 31 31 30 28 28 27 27 26 25 25 24 23 23 22 22 21 21 21 21 22 24 26 27 28 30 32 32 30 29 29 27 23 22 21 20 20 20 20 20 20 20 20 19 19 19 19 21 25 26 25 26 25 23 23 24 23 22 22 24 25 24 24 23 22 22 22 25 24 24 23 23 22 21 20 20 20 18 16 15
34 33 33 32 32 31 31 30 29 29 28 27 27 26 25 24 23 22 22 22 21 21 21 21 21 22 23 25 26 27 29 30 31 30 29 28 25 23 23 22 21 20 20 20 19 19 19 19 19 19 20 19 23 26 27 26 24 24 23 23 22 21 21 22 24 25 25 25 24 24 25 25 25 25 25 24 22 22 20 18 17 17 16 14 14
34 33 33 32 31 30 30 30 29 28 28 27 26 25 24 24 22 22 21 21 20 20 20 20 20 21 22 23 25 26 27 29 30 30 28 26 24 23 22 22 22 21 21 19 19 19 19 21 20 19 19 20 25 26 27 25 24 23 23 22 20 20 21 23 24 24 23 22 22 23 23 23 23 22 22 22 23 22 19 17 17 16 14 14 13
34 33 33 32 31 30 29 29 29 28 27 27 26 25 24 23 22 22 22 21 20 20 19 19 19 19 20 21 24 25 26 28 30 29 27 26 24 22 22 22 22 21 21 20 19 19 18 19 20 20 21 24 26 26 26 24 23 23 22 21 20 20 22 23 22 20 19 19 19 20 21 20 18 17 19 20 21 21 19 18 16 15 14 13 13
33 33 32 31 30 29 29 29 29 28 28 27 26 24 23 21 21 21 21 20 19 19 18 18 18 18 19 20 22 23 25 26 28 29 28 26 25 22 22 21 21 21 21 20 19 19 18 18 19 21 23 25 25 25 24 25 23 23 21 20 20 21 23 22 20 19 18 18 19 20 19 18 17 17 17 18 19 20 19 17 16 15 14 13 13
32 32 31 30 29 28 28 28 28 27 27 25 24 22 21 21 20 20 19 19 18 18 18 18 18 18 19 19 19 20 22 25 27 28 28 27 26 24 22 22 22 21 20 20 20 19 18 19 18 21 24 24 23 24 24 24 23 22 20 21 22 22 23 19 18 18 17 18 18 17 16 15 16 16 16 17 18 18 17 17 16 15 14 13 13
31 30 29 29 28 27 26 26 25 25 24 23 22 21 20 20 20 19 18 18 18 18 17 17 17 17 18 18 19 20 22 24 26 27 27 27 26 25 23 23 23 21 20 20 19 18 18 18 19 21 23 22 22 23 23 23 22 19 20 23 23 22 18 17 16 16 16 16 15 14 14 13 13 13 15 16 17 16 16 15 15 14 14 14 13
30 29 28 27 26 26 25 24 24 23 22 22 21 19 19 18 18 18 18 18 17 17 17 17 16 16 17 17 19 19 21 22 24 25 26 27 27 26 25 25 25 21 20 19 19 18 19 19 20 21 21 21 22 22 22 21 19 19 21 21 20 19 16 14 15 14 14 13 13 12 12 12 12 12 14 15 16 16 15 15 14 14 13 13 14
29 28 27 26 25 24 23 22 22 21 21 21 20 19 18 18 17 17 17 17 16 16 16 16 16 16 16 17 17 17 19 19 22 24 25 26 26 26 26 25 24 22 21 20 18 17 19 20 20 20 19 20 20 20 19 17 18 19 19 18 16 14 12 12 12 12 12 11 11 11 11 11 12 12 13 15 15 16 15 14 13 13 12 12 12
27 26 25 24 23 22 21 21 20 20 20 20 19 18 17 17 16 16 17 16 16 15 15 16 16 16 16 16 16 16 17 18 20 22 24 25 26 26 25 25 25 24 20 19 18 19 21 21 19 19 18 18 18 17 14 14 16 16 15 15 11 8 10 11 10 10 9 9 9 10 10 11 12 13 15 16 16 15 14 13 12 12 11 11 11
26 25 23 22 21 20 20 19 19 19 19 19 19 18 17 16 15 16 15 15 15 15 15 15 15 16 16 16 16 16 16 17 18 20 22 23 24 24 24 23 23 22 21 19 20 22 20 17 18 17 16 15 10 10 8 9 12 12 11 9 7 7 9 8 8 7 7 7 8 8 8 10 11 13 15 15 14 12 12 11 10 9 9 9 9
24 22 21 20 19 19 19 18 17 17 17 17 17 17 17 16 16 15 15 14 15 14 15 15 14 14 13 16 16 16 16 16 17 18 20 20 21 22 21 21 22 21 18 18 20 16 15 15 15 15 14 13 12 10 9 7 5 5 3 4 5 6 7 7 6 6 5 5 6 6 8 10 12 12 12 13 13 12 12 10 9 7 7 8 8
23 21 20 19 18 18 18 17 17 17 16 17 16 16 16 16 15 15 14 14 13 14 14 14 13 13 13 15 15 14 14 15 16 17 18 19 19 20 19 18 19 17 16 18 14 14 12 14 10 6 4 3 2 1 1 1 2 2 1 2 4 5 6 6 6 4 3 4 4 6 7 9 10 11 12 12 12 12 11 10 8 6 6 7 7
20 19 18 18 17 17 17 17 17 16 16 15 14 14 16 16 15 15 15 15 16 14 14 14 14 14 13 15 14 14 14 14 15 20 19 21 19 19 18 18 18 16 17 17 9 7 5 4 3 1 1 1 -0 -1 -1 -1 -0 -0 -1 0 2 3 3 2 1 1 2 3 3 5 6 7 8 10 11 12 12 11 10 9 7 5 5 6 7
19 18 17 17 16 16 16 16 15 15 15 15 14 12 17 18 17 15 15 19 20 19 18 15 15 15 14 14 14 12 13 14 19 23 23 24 23 23 21 21 21 17 21 19 10 2 2 0 0 -0 -1 -2 -2 -1 -1 -2 -2 -2 -2 3 1 1 1 1 0 1 2 2 3 4 5 6 7 9 10 11 11 11 10 10 6 5 4 5 6
18 17 16 17 16 16 15 15 14 14 14 14 13 13 13 17 18 18 18 19 19 19 19 21 19 19 16 14 16 18 17 20 23 24 24 25 24 23 22 22 22 21 21 11 3 1 -0 0 -0 -0 -1 -2 -2 -2 -2 -2 -2 -3 -3 -2 -1 -1 0 -1 -1 1 1 2 2 3 4 5 6 8 9 10 10 10 9 8 5 4 4 3 4
19 18 16 16 16 15 15 14 13 13 13 13 13 13 13 13 15 18 19 20 21 20 21 21 21 21 19 17 17 18 21 23 24 25 25 25 24 23 23 23 23 22 20 15 1 -0 -1 -1 -1 -2 -3 -3 -2 -2 -3 -3 -4 -4 -4 -3 -3 -2 -2 -2 -0 -1 -0 1 2 2 3 4 5 6 8 10 10 9 8 8 6 4 3 3 3
18 16 15 15 15 14 14 13 13 13 12 12 12 12 12 12 12 15 19 22 22 22 22 23 23 22 21 20 20 21 23 24 25 25 25 24 23 22 22 22 21 21 19 7 1 -0 -2 -2 -2 -2 -3 -3 -4 -5 -5 -5 -5 -5 -4 -4 -3 -4 -3 -2 -2 -2 -0 1 1 1 2 3 4 5 7 9 9 8 8 7 6 3 2 2 3
14 16 15 15 14 14 13 13 13 12 12 12 12 12 12 13 13 14 16 19 21 21 22 22 22 22 21 21 22 23 24 25 24 24 24 23 23 22 21 19 20 19 12 1 1 -0 -2 -3 -3 -3 -3 -4 -4 -4 -4 -6 -6 -5 -5 -5 -4 -3 -3 -3 -5 -3 -1 -1 -1 0 2 2 3 3 4 6 8 8 7 7 6 5 4 3 3
10 12 12 13 14 14 13 13 12 11 11 11 11 12 12 13 14 14 14 15 16 17 18 20 21 22 20 22 22 23 24 24 24 24 23 23 22 22 22 15 11 6 3 -1 -1 -1 -2 -2 -3 -3 -4 -4 -5 -5 -6 -7 -7 -6 -6 -6 -7 -7 -6 -6 -4 -3 -2 -2 -2 -0 1 1 1 3 4 5 6 7 7 6 6 6 4 3 3
9 11 11 12 12 12 12 12 11 11 11 10 11 11 11 12 13 13 14 14 15 15 15 18 19 22 21 21 22 22 23 23 24 23 22 23 22 22 12 9 6 1 -0 -1 -2 -2 -2 -2 -3 -4 -5 -6 -6 -6 -7 -7 -7 -7 -8 -8 -6 -7 -7 -7 -5 -3 -2 -3 -2 0 1 0 1 2 3 4 6 7 6 6 6 6 5 4 4
8 8 9 8 8 10 9 8 9 9 11 9 9 10 10 12 11 12 12 13 14 13 13 13 13 15 20 18 19 21 22 23 23 22 22 22 22 18 10 8 5 1 -1 -2 -3 -2 -3 -3 -4 -5 -6 -6 -7 -7 -8 -8 -8 -9 -6 -6 -8 -8 -8 -7 -5 -2 -4 -3 -2 -1 -1 -0 0 1 2 3 5 6 6 6 6 5 5 5 4
5 7 7 5 5 8 6 8 5 9 9 9 9 9 9 10 10 10 11 11 13 12 11 11 14 14 14 13 18 19 19 22 21 21 21 21 16 11 6 2 2 0 -1 -2 -3 -3 -3 -4 -7 -6 -7 -8 -8 -10 -10 -10 -10 -10 -9 -10 -9 -9 -4 -3 -4 -6 -5 -4 -2 -2 -1 -1 -0 1 2 3 4 5 6 6 5 4 4 3 1
3 8 9 9 9 6 6 5 5 7 6 7 7 7 7 8 8 8 9 9 10 11 10 10 11 12 13 12 14 16 18 17 16 14 15 14 9 7 5 1 -1 -1 -1 -2 -3 -3 -5 -6 -7 -7 -8 -10 -9 -10 -10 -10 -11 -10 -10 -11 -10 -10 -9 -9 -8 -7 -4 -3 -2 -2 -2 -2 -1 0 2 3 3 4 5 5 4 4 4 3 1
2 3 7 10 7 7 4 4 5 5 5 5 5 6 6 6 7 7 7 7 8 9 10 9 9 10 11 10 11 12 11 13 14 13 10 8 5 4 4 2 -0 -2 -3 -3 -4 -4 -5 -5 -7 -7 -7 -9 -10 -11 -11 -11 -10 -10 -10 -10 -10 -10 -9 -9 -7 -5 -3 -2 -2 -2 -2 -2 -2 -1 1 2 3 4 4 4 4 5 4 3 1
1 3 4 9 6 4 3 2 3 4 4 5 5 5 5 6 6 6 7 7 7 8 8 9 9 9 9 8 12 14 12 12 11 10 8 6 5 3 1 -0 -1 -2 -3 -3 -4 -4 -5 -6 -9 -9 -9 -9 -11 -11 -11 -11 -10 -9 -10 -9 -8 -8 -8 -8 -7 -5 -2 -2 -2 -2 -3 -3 -2 -2 -1 1 3 3 3 4 4 4 4 3 2
-1 0 1 2 5 3 2 2 2 3 3 3 3 4 4 5 5 5 5 6 6 6 6 7 7 7 8 11 12 13 11 10 9 8 7 5 4 3 -0 -1 -2 -2 -3 -3 -4 -5 -6 -7 -8 -9 -9 -9 -9 -10 -11 -11 -11 -10 -10 -9 -9 -9 -8 -7 -7 -5 -3 -2 -2 -2 -3 -3 -2 -2 -1 1 1 2 2 3 3 3 3 3 2
-1 -1 -1 1 1 2 2 2 0 -0 1 1 3 4 4 4 4 4 4 5 5 5 5 5 6 5 5 10 10 12 10 8 5 5 5 3 3 1 0 -2 -2 -2 -3 -3 -4 -4 -5 -7 -7 -8 -8 -8 -8 -9 -9 -9 -10 -10 -10 -10 -10 -9 -9 -8 -7 -5 -4 -2 -2 -2 -3 -3 -3 -3 -3 -2 -1 0 1 2 2 3 3 3 3
-1 -1 -0 0 -0 0 1 -0 -0 1 1 2 3 3 3 3 3 3 4 3 4 4 4 4 4 3 3 6 8 9 9 8 5 3 3 2 1 -0 -1 -1 -2 -4 -4 -5 -6 -6 -5 -6 -7 -8 -8 -8 -9 -10 -10 -10 -10 -10 -10 -11 -10 -9 -9 -8 -7 -7 -5 -3 -2 -2 -3 -3 -4 -4 -4 -3 -2 -1 1 1 2 2 2 3 3
-5 -3 -3 -3 -3 -3 -2 -2 -0 -1 1 0 1 2 2 2 2 3 3 3 3 3 3 3 3 2 1 2 5 6 7 7 4 2 1 0 -0 -0 -1 -2 -3 -4 -6 -7 -7 -8 -8 -7 -8 -8 -9 -10 -11 -11 -11 -11 -11 -11 -11 -11 -11 -10 -9 -9 -10 -8 -5 -3 -2 -2 -3 -4 -4 -5 -5 -4 -2 -1 -0 0 1 2 2 2 2
-5 -4 -4 -3 -4 -3 -3 -4 -2 -2 -2 -0 0 0 0 1 1 2 2 2 2 2 2 2 2 1 1 1 3 4 6 7 5 3 1 -0 -1 -1 -2 -3 -3 -4 -6 -8 -8 -8 -9 -8 -8 -9 -9 -10 -12 -12 -12 -12 -12 -13 -13 -12 -10 -10 -11 -11 -10 -7 -6 -3 -2 -2 -3 -3 -4 -4 -4 -4 -4 -3 -2 -1 -0 1 1 2 2
-7 -6 -5 -4 -4 -4 -3 -3 -4 -3 -3 -2 -1 -1 -0 0 0 1 2 2 2 1 1 1 1 1 0 -0 0 2 4 5 5 4 2 1 -0 -1 -2 -3 -5 -6 -7 -7 -8 -9 -9 -9 -9 -9 -9 -10 -11 -12 -13 -14 -14 -14 -13 -12 -13 -12 -12 -10 -8 -7 -5 -3 -2 -2 -2 -3 -3 -4 -5 -5 -5 -5 -3 -3 -2 -1 -1 1 2
-8 -7 -7 -5 -6 -5 -5 -5 -3 -1 -2 -2 -1 -1 -0 0 0 0 0 1 1 1 1 0 0 0 -0 -0 -0 0 2 3 4 3 2 0 -1 -2 -3 -4 -6 -6 -7 -9 -10 -10 -10 -10 -9 -9 -10 -11 -11 -12 -13 -14 -14 -14 -15 -14 -14 -14 -13 -10 -11 -9 -7 -4 -2 -2 -2 -2 -3 -5 -6 -7 -7 -6 -5 -5 -4 -3 -2 -1 1
-8 -8 -8 -7 -6 -6 -5 -4 -4 -4 -3 -3 -2 -1 -1 -1 -1 -0 -0 -0 0 0 0 0 -0 -0 -0 -0 -0 -1 -0 1 2 2 0 -1 -2 -3 -4 -6 -7 -7 -8 -9 -10 -11 -11 -10 -10 -11 -11 -12 -12 -12 -13 -14 -14 -15 -15 -15 -14 -10 -9 -9 -8 -8 -6 -3 -2 -2 -2 -2 -5 -8 -8 -8 -8 -8 -7 -7 -7 -5 -3 -2 -1
-8 -7 -7 -7 -6 -5 -6 -6 -5 -5 -4 -4 -3 -3 -2 -2 -1 -1 -1 -1 -1 -1 -1 -0 -0 -0 -1 -1 -1 -1 -1 -1 -1 -0 -1 -2 -3 -4 -6 -7 -7 -8 -8 -8 -9 -10 -11 -11 -11 -12 -12 -12 -12 -13 -13 -14 -14 -14 -15 -15 -8 -7 -7 -7 -6 -5 -4 -3 -3 -2 -1 -3 -5 -8 -9 -11 -12 -11 -11 -9 -7 -5 -4 -4 -3
-7 -8 -7 -6 -6 -5 -5 -4 -4 -4 -5 -4 -4 -3 -3 -2 -2 -1 -1 -1 -1 -1 -1 -1 -1 -1 -1 -1 -2 -2 -2 -2 -2 -2 -3 -4 -5 -5 -6 -7 -8 -8 -8 -8 -9 -10 -11 -11 -12 -12 -13 -13 -13 -13 -14 -14 -14 -14 -12 -10 -8 -7 -7 -6 -6 -4 -3 -3 -3 -2 -3 -5 -7 -8 -9 -10 -11 -12 -9 -7 -7 -7 -7 -6 -4